Location: StarHub Observatory
(35.2598°N, 77.5855°W)
Time: 02:49:21
(UTC-05:00)

Hubble Space Telescope - Pass Details

Date: 04 December 2021
Orbit: 534 x 538 km, 28.5° (Epoch: 28 January)

Event Time Altitude Azimuth Distance (km) Brightness Sun altitude
Exits shadow 04:54:05 17° 176° (S) 1,397 3.0 -25.8°
Drops below altitude 10° 04:55:51 10° 152° (SSE) 1,770 3.9 -25.4°
Sets 04:58:37 0° 133° (SE) 2,659 5.2 -24.9°
